[[{"header":{"parameterUnit":"m.s-1","parameterCategory":1,"la1":30.2991,"la2":30.254,"lo1":-89.0895,"lo2":-89.0444,"dy":0.0017,"dx":0.0017,"nx":28,"ny":28,"refTime":"2025-05-19T03:00:00:Z","depth":0,"parameterNumber":2,"parameterNumberName":"U-component_of_WINDS"},"data":[0,0,0,0,0,0,0,0,0,0,0,0,0,0,0,0,0,0,0,0,0,0,0,0,0,0,0,0,0,0,0,0,0,0,0,0,0,0,0,0,0,0,0,0,0,0,0,0,0,0,0,0,0,0,0,0,0,0,-0.0065,-0.0065,0,-0.0012,-0.0012,-0.0011,0.0003,0.0003,0.0002,0.0002,0.0055,0.0057,0.0058,0,0,0,0,0,0,0,0,0,0,0,0,0,-0.0156,-0.0154,-0.0065,-0.0065,-0.0064,-0.0013,-0.0012,-0.0011,0.0003,0.0003,0.0002,0.0002,0.0054,0.0056,0.0058,0,0,0,0,0,0,0,0,0,0,0,0,0,-0.0111,-0.0154,-0.0065,-0.0051,-0.0049,-0.0013,-0.0012,-0.0011,0.0003,0.0002,0.0002,0.0002,0.0054,0.0056,0.0059,0.0084,0,0,0.0066,0.0068,0,0,0,0,0,0,0,0,-0.0114,-0.0108,-0.0054,-0.0052,-0.005,-0.0012,-0.0024,0.0021,0.0003,-0.0017,0.0002,0.0001,0.0033,0.0037,0.0048,0.0086,0.0089,0.0067,0.0068,0.0069,0.007,0,0,0,0,0,0,0,-0.0117,-0.011,-0.0044,-0.0053,-0.005,-0.0047,-0.0042,-0.0016,0.001,-0.0015,-0.0014,-0.0008,0.0034,0.0046,0.0049,0.0089,0.0067,0.0069,0.007,0.0071,0.0149,0.015,0,0,0,0,0,0,-0.0122,-0.0113,-0.0046,-0.0043,-0.0083,-0.0045,-0.0039,-0.0023,0.001,0.0014,-0.0007,-0.0007,0.0041,0.0046,0.0051,0.0082,0.0069,0.0072,0.0073,0.0149,0.0149,0.015,0,0,0,0,0,0,-0.0124,-0.0116,-0.0048,-0.0077,-0.0068,-0.0043,-0.0026,-0.0022,-0.0011,0.0016,0.002,-0.0,0.0041,0.0048,0.0075,0.0084,0.0073,0.0075,0.0148,0.0149,0.015,0.0144,0,0,0,0,0,0,-0.0127,-0.0117,-0.0107,-0.0077,-0.0067,-0.0025,-0.0026,-0.0021,-0.0006,-0.0005,0.0024,0.0028,0.0041,0.0071,0.0078,0.0087,0.0077,0.0147,0.0148,0.0149,0.0144,0.0145,0.0146,0,0,0,0,0,-0.013,-0.011,-0.0106,-0.0098,-0.0053,-0.0024,-0.0018,-0.0003,-0.0005,0.0005,0.0021,0.0027,0.0082,0.0074,0.0082,0.0092,0.0147,0.0148,0.0149,0.0143,0.0144,0.0146,0,0,0,0,0,0,-0.014,-0.0106,-0.0101,-0.0071,-0.0051,-0.0022,-0.0008,-0.0002,0.002,0.002,0.0037,0.0044,0.007,0.0084,0.0074,0.0117,0.0114,0.0117,0.0107,0.0109,0.011,0.0106,0.0079,0,0,0,0,0,-0.0138,-0.0117,-0.0089,-0.0065,-0.0055,-0.0033,-0.002,-0.001,0.0012,0.0021,0.0039,0.006,0.0082,0.0096,0.0118,0.0146,0.0152,0.0156,0.0157,0.0158,0.016,0.0175,0.0177,0.0154,0.0154,0.0154,0,0,-0.0135,-0.0114,-0.0102,-0.0066,-0.0049,-0.0028,-0.0026,-0.0003,0.0012,0.0024,0.0051,0.0065,0.009,0.0117,0.013,0.013,0.0168,0.0159,0.016,0.0162,0.0176,0.0178,0.018,0.0155,0.0154,0.0154,0,0,-0.0119,-0.01,-0.0079,-0.0062,-0.0036,-0.0022,-0.0017,0.0011,0.0021,0.0048,0.0057,0.0076,0.0114,0.013,0.0144,0.0165,0.017,0.0171,0.0176,0.019,0.0192,0.0194,0.02,0.0203,0.0173,0.0173,0.0173,0,-0.0118,-0.0085,-0.0069,-0.0047,-0.0032,-0.0021,0.0001,0.0016,0.0048,0.0057,0.0056,0.0103,0.012,0.0151,0.0156,0.0167,0.0172,0.0168,0.019,0.0192,0.0194,0.0201,0.0203,0.0173,0.0173,0.0173,0.0173,0,-0.0087,-0.0064,-0.005,-0.002,-0.0003,0.0018,0.0037,0.0051,0.0059,0.0073,0.01,0.0121,0.0147,0.0155,0.0163,0.0187,0.0185,0.0187,0.0185,0.0196,0.0202,0.0205,0.0173,0.0173,0.0173,0.0173,0,0,-0.0074,-0.0036,-0.0031,-0.0018,0.0012,0.0029,0.005,0.0076,0.0087,0.0108,0.0126,0.0157,0.0159,0.0174,0.0184,0.0196,0.0211,0.0196,0.0197,0.0198,0.0237,0.0235,0.0238,0.0214,0.0215,0.0215,0.0234,0,-0.0055,-0.0015,-0.0,0.0032,0.0052,0.0063,0.0081,0.0101,0.0114,0.0132,0.0147,0.0168,0.0169,0.0178,0.0191,0.0206,0.0218,0.0205,0.0231,0.0231,0.0224,0.0241,0.024,0.0257,0.0237,0.0237,0.0238,0,-0.0026,-0.0005,0.0029,0.0055,0.0064,0.0081,0.0104,0.0122,0.0144,0.0152,0.0169,0.0178,0.02,0.0196,0.0226,0.0216,0.0227,0.0236,0.0237,0.024,0.0235,0.0244,0.0262,0.0265,0.0242,0.0242,0.0241,0,-0.0021,0.0016,0.0041,0.0052,0.0083,0.0094,0.0107,0.0128,0.0142,0.0163,0.0172,0.0194,0.0206,0.0223,0.0238,0.0234,0.0266,0.0263,0.0273,0.0273,0.0279,0.0279,0.0299,0.0287,0.0287,0.0287,0.0287,0,-0.0001,0.0019,0.0043,0.0059,0.0081,0.0097,0.0119,0.0133,0.0151,0.0169,0.0179,0.0195,0.0214,0.0232,0.0243,0.0266,0.0271,0.0278,0.0281,0.0277,0.0276,0.0285,0.0284,0.0288,0.0288,0.0287,0.0287,0,0.0008,0.0025,0.0053,0.008,0.0087,0.0102,0.0124,0.0139,0.0152,0.0174,0.018,0.0201,0.0223,0.0239,0.0267,0.0275,0.0298,0.0302,0.0291,0.0293,0.0301,0.03,0.0328,0.0332,0.0317,0.0317,0.0317,0,0.002,0.0035,0.0064,0.0076,0.0089,0.011,0.0124,0.014,0.0154,0.0179,0.0191,0.0213,0.0232,0.0266,0.0283,0.0304,0.0308,0.0316,0.0311,0.0306,0.0307,0.0306,0.0307,0.0317,0.0317,0.0317,0.0317,0,0.0038,0.0046,0.0066,0.0089,0.0105,0.0124,0.0143,0.0152,0.0172,0.0187,0.0209,0.0224,0.0252,0.0274,0.0297,0.031,0.0316,0.0318,0.0322,0.0318,0.0311,0.0314,0.0293,0.0318,0.0318,0.0318,0.0318,0.0317,0.0049,0.0063,0.0085,0.0107,0.0122,0.0139,0.0154,0.0169,0.0189,0.0213,0.0221,0.0244,0.0264,0.0296,0.0309,0.0326,0.0326,0.0331,0.0332,0.0333,0.0332,0.0308,0.033,0.033,0.033,0.033,0.033,0,0.0067,0.0082,0.0102,0.0128,0.0144,0.0149,0.017,0.0184,0.0204,0.0222,0.0241,0.0266,0.0287,0.0305,0.0327,0.0337,0.0341,0.0342,0.0342,0.0344,0.0332,0.0326,0.0339,0.0339,0.0339,0.0339,0.0339,0.0339,0.0079,0.0103,0.0113,0.0144,0.0158,0.0181,0.0193,0.0208,0.0223,0.0251,0.0268,0.028,0.0298,0.0321,0.034,0.0345,0.0352,0.0353,0.0358,0.0346,0.0345,0.0344,0.0339,0.0354,0.0354,0.0369,0.0369,0.037]},{"header":{"parameterUnit":"m.s-1","parameterCategory":1,"la1":30.2991,"la2":30.254,"lo1":-89.0895,"lo2":-89.0444,"dy":0.0017,"dx":0.0017,"nx":28,"ny":28,"refTime":"2025-05-19T03:00:00:Z","depth":0,"parameterNumber":3,"parameterNumberName":"V-component_of_WINDS"},"data":[0,0,0,0,0,0,0,0,0,0,0,0,0,0,0,0,0,0,0,0,0,0,0,0,0,0,0,0,0,0,0,0,0,0,0,0,0,0,0,0,0,0,0,0,0,0,0,0,0,0,0,0,0,0,0,0,0,0,6.2571,6.2572,0,6.2702,6.2703,6.2705,6.2659,6.2656,6.2653,6.265,6.2776,6.2781,6.2787,0,0,0,0,0,0,0,0,0,0,0,0,0,6.2272,6.2278,6.2571,6.2572,6.2574,6.2701,6.2703,6.2705,6.2659,6.2656,6.2652,6.2649,6.2774,6.2781,6.2788,0,0,0,0,0,0,0,0,0,0,0,0,0,6.2402,6.228,6.257,6.2567,6.2568,6.2701,6.2703,6.2706,6.266,6.2655,6.2651,6.2647,6.2771,6.278,6.2789,6.2931,0,0,6.2816,6.282,0,0,0,0,0,0,0,0,6.2395,6.2413,6.2566,6.2567,6.2569,6.266,6.2644,6.2781,6.2661,6.2625,6.265,6.2645,6.274,6.2751,6.2785,6.2937,6.2942,6.2817,6.2823,6.2827,6.2829,0,0,0,0,0,0,0,6.2386,6.2407,6.2622,6.2568,6.257,6.2555,6.2569,6.267,6.2704,6.2627,6.2624,6.2641,6.274,6.2776,6.2788,6.2944,6.2817,6.2825,6.2831,6.2834,6.3218,6.3222,0,0,0,0,0,0,6.2377,6.24,6.2618,6.2626,6.247,6.2564,6.258,6.2635,6.2703,6.271,6.2645,6.2638,6.2763,6.2777,6.2792,6.2962,6.2827,6.2835,6.284,6.3213,6.3219,6.3224,0,0,0,0,0,0,6.2371,6.2397,6.2613,6.2512,6.2539,6.2574,6.2636,6.2639,6.2676,6.2717,6.2722,6.2676,6.276,6.2779,6.2897,6.2966,6.2839,6.2847,6.3207,6.3215,6.3221,6.3304,0,0,0,0,0,0,6.2363,6.2395,6.2452,6.2514,6.2544,6.2719,6.264,6.2645,6.2693,6.2686,6.2748,6.2753,6.2758,6.2884,6.2906,6.2976,6.2854,6.3201,6.3211,6.3219,6.3295,6.3313,6.3328,0,0,0,0,0,6.2352,6.2468,6.2455,6.2482,6.2616,6.2723,6.274,6.2746,6.2699,6.2754,6.278,6.2751,6.2955,6.2896,6.2921,6.2994,6.3197,6.3208,6.3218,6.3288,6.331,6.3328,0,0,0,0,0,0,6.241,6.2476,6.2462,6.2603,6.2658,6.2715,6.2786,6.2769,6.2836,6.2826,6.2828,6.2842,6.2963,6.2991,6.2924,6.3135,6.3068,6.3085,6.3113,6.3134,6.315,6.314,6.2862,0,0,0,0,0,6.244,6.2524,6.2576,6.2694,6.2723,6.275,6.2796,6.2796,6.2852,6.2875,6.2909,6.2962,6.3038,6.3087,6.3159,6.3299,6.3311,6.3362,6.3378,6.3391,6.3405,6.3479,6.3502,6.3259,6.3259,6.3259,0,0,6.2501,6.2547,6.26,6.2707,6.275,6.2834,6.277,6.2861,6.2923,6.2887,6.3002,6.3029,6.3088,6.3217,6.3276,6.3244,6.3475,6.3405,6.3416,6.3422,6.3493,6.3516,6.3536,6.3266,6.3265,6.3264,0,0,6.2655,6.27,6.2803,6.2848,6.2914,6.2931,6.2956,6.3016,6.3034,6.3149,6.3124,6.3195,6.3326,6.3369,6.3408,6.3578,6.3554,6.3602,6.3687,6.376,6.3779,6.3796,6.3855,6.3876,6.3615,6.3615,6.3615,0,6.2721,6.285,6.2857,6.2952,6.2999,6.2974,6.3076,6.3118,6.3204,6.3235,6.3199,6.3363,6.34,6.3539,6.3581,6.3614,6.364,6.3594,6.3776,6.3793,6.3809,6.3865,6.3888,6.3621,6.362,6.3619,6.3619,0,6.2927,6.3017,6.3092,6.3178,6.3234,6.3332,6.3351,6.3406,6.3401,6.3421,6.3537,6.3582,6.3662,6.3695,6.369,6.3833,6.381,6.3775,6.3708,6.3837,6.389,6.3912,6.3628,6.3626,6.3625,6.3623,0,0,6.3121,6.3211,6.3238,6.3277,6.3348,6.3416,6.3512,6.3593,6.3639,6.3699,6.3777,6.3889,6.3857,6.3901,6.39,6.3964,6.4094,6.3921,6.3922,6.395,6.4252,6.4277,6.4302,6.4079,6.4083,6.4087,6.4246,0,6.3279,6.3451,6.3461,6.3615,6.3697,6.3674,6.3757,6.3808,6.3829,6.3899,6.3921,6.4,6.3952,6.3978,6.4041,6.4065,6.4154,6.4054,6.4149,6.4153,6.4134,6.433,6.4357,6.4506,6.4267,6.4271,6.4273,0,6.3488,6.3557,6.3721,6.378,6.3815,6.389,6.3964,6.4032,6.4089,6.41,6.415,6.414,6.4235,6.4166,6.4295,6.4227,6.4266,6.4284,6.429,6.4297,6.422,6.4342,6.4554,6.4576,6.4306,6.4304,6.4301,0,6.361,6.3744,6.3859,6.3893,6.3966,6.4019,6.4051,6.4104,6.4152,6.4216,6.4247,6.432,6.436,6.4416,6.4425,6.4374,6.4554,6.4486,6.4563,6.4563,6.4601,6.4598,6.4821,6.4629,6.4629,6.4628,6.4628,0,6.3786,6.3886,6.3915,6.3986,6.4097,6.4106,6.4214,6.4242,6.429,6.4363,6.4347,6.4415,6.4424,6.4494,6.4501,6.4606,6.4624,6.4634,6.4634,6.4635,6.4633,6.4659,6.4649,6.4634,6.4633,6.4632,6.4631,0,6.3941,6.3965,6.4089,6.4149,6.4166,6.4245,6.4294,6.436,6.438,6.4473,6.4495,6.4525,6.4606,6.4622,6.4717,6.4722,6.4847,6.4837,6.4829,6.4827,6.4903,6.4895,6.5149,6.5182,6.4969,6.4971,6.4973,0,6.4051,6.4129,6.4197,6.4247,6.4283,6.4362,6.4412,6.4422,6.4474,6.4545,6.4602,6.4682,6.4747,6.4878,6.4906,6.4978,6.4969,6.5053,6.498,6.4978,6.4969,6.4964,6.497,6.5067,6.5069,6.5071,6.5073,0,6.4243,6.4252,6.4325,6.4404,6.4464,6.4525,6.4583,6.4624,6.4641,6.47,6.4785,6.4835,6.4934,6.5013,6.5085,6.5114,6.5096,6.5096,6.5117,6.5118,6.5109,6.5113,6.4866,6.5089,6.5088,6.5087,6.5086,6.5085,6.4379,6.4446,6.4505,6.4587,6.4633,6.4687,6.4752,6.4781,6.4853,6.4936,6.4937,6.5029,6.5082,6.5178,6.5212,6.5282,6.5255,6.5286,6.5294,6.5301,6.5308,6.5099,6.5295,6.5295,6.5294,6.5294,6.5294,0,6.4569,6.4606,6.4682,6.4765,6.4829,6.4809,6.4872,6.4926,6.5009,6.5061,6.5126,6.5222,6.5299,6.5334,6.5408,6.5458,6.5451,6.5477,6.5472,6.5479,6.5328,6.5302,6.5481,6.5481,6.5481,6.5481,6.5481,6.5481,6.4675,6.4788,6.4803,6.4937,6.4972,6.5065,6.5102,6.5151,6.5193,6.5303,6.5368,6.5391,6.5435,6.5513,6.5582,6.559,6.5617,6.5647,6.565,6.5509,6.549,6.5472,6.5447,6.5653,6.5653,6.5795,6.5796,6.5797]}]]